K3MJW-2 Weather Reports


time (UTC)temp
F
wind
direction
speed
knots
gust
knots
rain 1hr
in
rain 24hr
in
rain mn
in
humidity
%
barometer
mb
20260507211532 58 297 3.5 7.0 0.00 0.00 0.00 2
20260507211032 59 322 0.0 6.1 0.00 0.00 0.00 2
20260507210533 59 358 0.9 6.1 0.00 0.00 0.00 2
20260507210033 58 60 2.6 4.3 0.00 0.00 0.00 2
20260507205532 58 288 0.0 0.0 0.00 0.00 0.00 2
20260507205032 58 288 1.7 7.0 0.00 0.00 0.00 2
20260507204533 58 301 2.6 6.1 0.00 0.00 0.00 2
20260507204032 57 297 4.3 6.1 0.00 0.00 0.00 2
20260507203532 58 310 4.3 8.7 0.00 0.00 0.00 2
20260507203033 58 308 4.3 7.0 0.00 0.00 0.00 2
20260507202532 58 312 2.6 5.2 0.00 0.00 0.00 2
20260507202033 59 24 1.7 6.1 0.00 0.00 0.00 2
20260507201532 59 290 4.3 7.0 0.00 0.00 0.00 2
20260507201032 59 286 2.6 6.1 0.00 0.00 0.00 2
20260507200532 59 289 1.7 5.2 0.00 0.00 0.00 2
20260507200032 58 292 1.7 6.1 0.00 0.00 0.00 2
20260507195532 58 327 2.6 5.2 0.00 0.00 0.00 2
20260507195033 58 318 0.0 5.2 0.00 0.00 0.00 2
20260507194532 58 317 0.9 6.1 0.00 0.00 0.00 2
20260507194032 58 316 0.0 0.0 0.00 0.00 0.00 2
20260507193532 58 316 0.0 5.2 0.00 0.00 0.00 2
20260507193032 58 296 2.6 5.2 0.00 0.00 0.00 2
20260507192532 58 289 0.9 5.2 0.00 0.00 0.00 2
20260507192032 58 320 4.3 6.1 0.00 0.00 0.00 2
20260507191532 59 295 0.0 5.2 0.00 0.00 0.00 2
20260507191032 58 296 4.3 6.1 0.00 0.00 0.00 2
20260507190533 59 276 0.9 7.0 0.00 0.00 0.00 2
20260507190033 61 210 0.0 2.6 0.00 0.00 0.00 2
20260507185532 58 268 1.7 5.2 0.00 0.00 0.00 2
20260507185033 58 278 2.6 7.0 0.00 0.00 0.00 2
20260507184532 60 315 1.7 5.2 0.00 0.00 0.00 2
20260507184032 58 348 2.6 5.2 0.00 0.00 0.00 2
20260507183532 57 237 0.0 4.3 0.00 0.00 0.00 2
20260507183033 58 290 2.6 10.4 0.00 0.00 0.00 2
20260507182532 58 288 6.1 8.7 0.00 0.00 0.00 2
20260507182033 61 320 6.1 7.8 0.00 0.00 0.00 2
20260507181532 61 275 2.6 8.7 0.00 0.00 0.00 2
20260507181033 59 290 4.3 7.0 0.00 0.00 0.00 2
20260507180533 60 277 4.3 7.0 0.00 0.00 0.00 2
20260507180032 59 286 5.2 7.0 0.00 0.00 0.00 2
20260507175532 58 254 5.2 7.0 0.00 0.00 0.00 2
20260507175032 58 292 4.3 6.1 0.00 0.00 0.00 2
20260507174532 59 279 3.5 6.1 0.00 0.00 0.00 2
20260507174032 59 320 3.5 7.0 0.00 0.00 0.00 2
20260507173532 59 268 5.2 7.8 0.00 0.00 0.00 2
20260507173032 60 275 3.5 6.1 0.00 0.00 0.00 2
20260507172532 60 276 3.5 6.1 0.00 0.00 0.00 2
20260507172032 59 220 1.7 7.8 0.00 0.00 0.00 2
20260507171532 59 258 6.1 7.8 0.00 0.00 0.00 2
20260507171032 60 251 2.6 6.1 0.00 0.00 0.00 2
20260507170532 59 230 4.3 6.1 0.00 0.00 0.00 2
20260507170032 57 279 7.0 7.8 0.00 0.00 0.00 2
20260507165533 57 258 6.1 7.8 0.00 0.00 0.00 2
20260507165033 59 283 2.6 7.0 0.00 0.00 0.00 2
20260507164532 57 286 5.2 7.8 0.00 0.00 0.00 2
20260507164032 58 268 4.3 7.0 0.00 0.00 0.00 2
20260507163532 58 284 2.6 5.2 0.00 0.00 0.00 2
20260507163032 57 286 4.3 7.0 0.00 0.00 0.00 2
20260507162532 56 241 5.2 7.8 0.00 0.00 0.00 2
20260507162032 57 277 1.7 7.0 0.00 0.00 0.00 2
20260507161532 55 287 4.3 7.0 0.00 0.00 0.00 2
20260507161032 57 283 3.5 6.1 0.00 0.00 0.00 2
20260507160532 57 253 1.7 5.2 0.00 0.00 0.00 2
20260507160032 56 176 1.7 6.1 0.00 0.00 0.00 2
20260507155532 56 295 4.3 6.1 0.00 0.00 0.00 2
20260507155033 56 258 0.9 5.2 0.00 0.00 0.00 2
20260507154532 55 295 0.9 6.1 0.00 0.00 0.00 2
20260507154032 54 155 0.0 0.0 0.00 0.00 0.00 2
20260507153532 55 155 0.0 0.0 0.00 0.00 0.00 2
20260507153032 57 155 0.0 0.0 0.00 0.00 0.00 2
20260507152532 55 155 0.0 5.2 0.00 0.00 0.00 2
20260507152032 56 257 4.3 6.1 0.00 0.00 0.00 2
20260507151533 55 278 0.0 5.2 0.00 0.00 0.00 2
20260507151032 54 250 0.0 4.3 0.00 0.00 0.00 2
20260507150532 53 264 4.3 7.0 0.00 0.00 0.00 2
20260507150032 55 284 2.6 5.2 0.00 0.00 0.00 2
20260507145533 54 14 2.6 7.0 0.00 0.00 0.00 2
20260507145032 54 273 4.3 7.0 0.00 0.00 0.00 2
20260507144532 54 323 3.5 6.1 0.00 0.00 0.00 2
20260507144032 53 337 4.3 5.2 0.00 0.00 0.00 2
20260507143532 54 287 3.5 5.2 0.00 0.00 0.00 2
20260507143033 53 312 0.9 6.1 0.00 0.00 0.00 2
20260507142532 54 253 3.5 5.2 0.00 0.00 0.00 2
20260507142032 53 234 0.0 6.1 0.00 0.00 0.00 2
20260507141532 53 261 1.7 6.1 0.00 0.00 0.00 2
20260507141032 52 296 1.7 7.0 0.00 0.00 0.00 2
20260507140533 52 243 1.7 6.1 0.00 0.00 0.00 2
20260507140032 52 130 0.0 0.0 0.00 0.00 0.00 2
20260507135532 52 130 0.0 0.0 0.00 0.00 0.00 2
20260507135032 52 130 0.0 0.0 0.00 0.00 0.00 2
20260507134532 52 130 0.9 2.6 0.00 0.00 0.00 2
20260507134033 51 179 0.0 0.0 0.00 0.00 0.00 2
20260507133532 51 179 0.0 0.0 0.00 0.00 0.00 2
20260507133032 51 179 0.0 0.0 0.00 0.00 0.00 2
20260507132532 51 179 0.0 5.2 0.00 0.00 0.00 2
20260507132032 50 226 0.0 0.0 0.00 0.00 0.00 2
20260507131532 50 226 0.9 6.1 0.00 0.00 0.00 2
20260507131032 49 203 3.5 6.1 0.00 0.00 0.00 2
20260507130533 49 215 4.3 6.1 0.00 0.00 0.00 2
20260507130033 49 186 0.0 0.0 0.00 0.00 0.00 2
20260507125532 48 197 2.6 5.2 0.00 0.00 0.00 2
20260507125032 48 192 0.0 4.3 0.00 0.00 0.00 2
20260507124532 48 206 0.0 1.7 0.00 0.00 0.00 2
20260507124032 47 210 0.0 2.6 0.00 0.00 0.00 2
20260507123532 47 174 0.0 1.7 0.00 0.00 0.00 2
20260507123032 46 196 0.0 0.0 0.00 0.00 0.00 2
20260507122532 45 196 0.0 1.7 0.00 0.00 0.00 2
20260507122032 45 178 0.0 2.6 0.00 0.00 0.00 2
20260507121532 44 240 0.0 0.0 0.00 0.00 0.00 2
20260507121033 44 240 0.0 0.0 0.00 0.00 0.00 2
20260507120532 43 240 0.0 0.0 0.00 0.00 0.00 2
20260507120032 42 240 0.0 0.0 0.00 0.00 0.00 2
20260507115533 42 240 0.0 0.0 0.00 0.00 0.00 2
20260507115032 41 240 0.0 0.0 0.00 0.00 0.00 2
20260507114532 40 240 0.0 0.0 0.00 0.00 0.00 2
20260507114032 40 240 0.0 0.0 0.00 0.00 0.00 2
20260507113532 40 240 0.0 0.0 0.00 0.00 0.00 2
20260507113033 40 240 0.0 0.0 0.00 0.00 0.00 2
20260507112532 40 240 0.0 0.0 0.00 0.00 0.00 2
20260507112033 40 240 0.0 0.0 0.00 0.00 0.00 2
20260507111532 39 240 0.0 0.0 0.00 0.00 0.00 2
20260507111032 38 240 0.0 0.0 0.00 0.00 0.00 2
20260507110532 38 240 0.0 0.0 0.00 0.00 0.00 2
20260507110033 36 240 0.0 0.0 0.00 0.00 0.00 2
20260507105532 36 240 0.0 0.0 0.00 0.00 0.00 2
20260507105032 36 240 0.0 0.0 0.00 0.00 0.00 2
20260507104532 36 240 0.0 0.0 0.00 0.00 0.00 2
20260507104032 36 240 0.0 0.0 0.00 0.00 0.00 2
20260507103533 36 240 0.0 0.0 0.00 0.00 0.00 2
20260507103032 36 240 0.0 0.0 0.00 0.00 0.00 2
20260507102532 36 240 0.0 0.0 0.00 0.00 0.00 2
20260507102032 36 240 0.0 0.0 0.00 0.00 0.00 2
20260507101532 36 240 0.0 0.0 0.00 0.00 0.00 2
20260507101032 37 240 0.0 0.0 0.00 0.00 0.00 2
20260507100532 37 240 0.0 0.0 0.00 0.00 0.00 2
20260507100032 37 240 0.0 0.0 0.00 0.00 0.00 2
20260507095532 37 240 0.0 0.0 0.00 0.00 0.00 2
20260507095033 37 240 0.0 0.0 0.00 0.00 0.00 2
20260507094532 37 240 0.0 0.0 0.00 0.00 0.00 2
20260507094032 37 240 0.0 0.0 0.00 0.00 0.00 2
20260507093532 37 240 0.0 0.0 0.00 0.00 0.00 2
20260507093032 37 240 0.0 0.0 0.00 0.00 0.00 2
20260507092533 37 240 0.0 0.0 0.00 0.00 0.00 2
20260507092032 38 240 0.0 0.0 0.00 0.00 0.00 2
20260507091532 38 240 0.0 0.0 0.00 0.00 0.00 2
20260507091032 38 240 0.0 0.0 0.00 0.00 0.00 2
20260507090532 38 240 0.0 0.0 0.00 0.00 0.00 2
20260507090032 38 240 0.0 0.0 0.00 0.00 0.00 2
20260507085532 38 240 0.0 0.0 0.00 0.00 0.00 2
20260507085032 38 240 0.0 0.0 0.00 0.00 0.00 2
20260507084533 39 240 0.0 0.0 0.00 0.00 0.00 2
20260507084032 39 240 0.0 0.0 0.00 0.00 0.00 2
20260507083532 39 240 0.0 0.0 0.00 0.00 0.00 2
20260507083033 39 240 0.0 0.0 0.00 0.00 0.00 2
20260507082532 39 240 0.0 0.0 0.00 0.00 0.00 2
20260507082032 39 240 0.0 0.0 0.00 0.00 0.00 2
20260507081532 39 240 0.0 0.0 0.00 0.00 0.00 2
20260507081032 40 240 0.0 0.0 0.00 0.00 0.00 2
20260507080532 40 240 0.0 0.0 0.00 0.00 0.00 2
20260507080032 40 240 0.0 0.0 0.00 0.00 0.00 2
20260507075532 40 240 0.0 0.0 0.00 0.00 0.00 2
20260507075032 41 240 0.0 0.0 0.00 0.00 0.00 2
20260507074532 41 240 0.0 0.0 0.00 0.00 0.00 2
20260507074032 41 240 0.0 0.0 0.00 0.00 0.00 2
20260507073533 41 240 0.0 0.0 0.00 0.00 0.00 2
20260507073032 42 240 0.0 0.0 0.00 0.00 0.00 2
20260507072532 42 240 0.0 0.0 0.00 0.00 0.00 2
20260507072032 42 240 0.0 0.0 0.00 0.00 0.00 2
20260507071532 42 240 0.0 0.0 0.00 0.00 0.00 2
20260507071032 42 240 0.0 0.0 0.00 0.00 0.00 2
20260507070532 43 240 0.0 0.0 0.00 0.00 0.00 2
20260507070032 43 240 0.0 0.0 0.00 0.00 0.00 2
20260507065532 43 240 0.0 0.0 0.00 0.00 0.00 2
20260507065032 44 240 0.0 0.0 0.00 0.00 0.00 2
20260507064532 44 240 0.0 0.0 0.00 0.00 0.00 2
20260507064032 44 240 0.0 0.0 0.00 0.00 0.00 2
20260507063532 44 240 0.0 0.0 0.00 0.00 0.00 2
20260507063032 44 240 0.0 0.0 0.00 0.00 0.00 2
20260507062532 45 240 0.0 0.0 0.00 0.00 0.00 2
20260507062032 45 240 0.0 0.0 0.00 0.00 0.00 2
20260507061532 45 240 0.0 0.0 0.00 0.00 0.00 2
20260507061032 45 240 0.0 0.0 0.00 0.00 0.00 2
20260507060532 45 240 0.0 0.0 0.00 0.00 0.00 2
20260507060032 45 240 0.0 0.0 0.00 0.00 0.00 2
20260507055532 45 240 0.0 0.0 0.00 0.00 0.00 2
20260507055032 46 240 0.0 0.0 0.00 0.00 0.00 2
20260507054532 46 240 0.0 0.0 0.00 0.00 0.00 2
20260507054032 46 240 0.0 0.0 0.00 0.00 0.00 2
20260507053533 46 240 0.0 0.0 0.00 0.00 0.00 2
20260507053032 46 240 0.0 0.0 0.00 0.00 0.00 2
20260507052532 46 240 0.0 0.0 0.00 0.00 0.00 2
20260507052032 46 240 0.0 0.0 0.00 0.00 0.00 2
20260507051532 46 240 0.0 0.0 0.00 0.00 0.00 2
20260507051032 46 240 0.0 0.0 0.00 0.00 0.00 2
20260507050532 46 240 0.0 0.0 0.00 0.00 0.00 2
20260507050032 46 240 0.0 0.0 0.00 0.00 0.00 2
20260507045532 46 240 0.0 0.0 0.00 0.00 0.00 2
20260507045032 46 240 0.0 0.0 0.00 0.00 0.00 2
20260507044532 47 240 0.0 0.0 0.00 0.00 0.00 2
20260507044032 46 240 0.0 0.0 0.00 0.00 0.00 2
20260507043532 47 240 0.0 0.0 0.00 0.00 0.00 2
20260507043032 47 240 0.0 0.0 0.00 0.00 0.00 2
20260507042532 47 240 0.0 0.0 0.00 0.00 0.00 2
20260507042032 47 240 0.0 0.0 0.00 0.00 0.00 2
20260507041532 47 240 0.0 0.0 0.00 0.00 0.00 2
20260507041032 47 240 0.0 0.0 0.00 0.00 0.00 2
20260507040533 46 240 0.0 0.0 0.00 0.00 0.00 2
20260507040032 46 240 0.0 0.0 0.00 0.00 0.00 2
20260507035532 46 240 0.0 0.0 0.00 0.00 0.00 2
20260507035032 47 240 0.0 0.0 0.00 0.00 0.00 2
20260507034532 47 240 0.0 0.0 0.00 0.00 0.00 2
20260507034032 47 240 0.0 0.0 0.00 0.00 0.00 2
20260507033532 47 240 0.0 0.0 0.00 0.00 0.00 2
20260507033032 47 240 0.0 0.0 0.00 0.00 0.00 2
20260507032532 47 240 0.0 0.0 0.00 0.00 0.00 2
20260507032032 48 240 0.0 0.0 0.00 0.00 0.00 2
20260507031532 48 240 0.0 0.0 0.00 0.00 0.00 2
20260507031032 47 240 0.0 0.0 0.00 0.00 0.00 2
20260507030532 47 240 0.0 0.0 0.00 0.00 0.00 2
20260507030032 48 240 0.0 0.0 0.00 0.00 0.00 2
20260507025532 48 240 0.0 0.0 0.00 0.00 0.00 2
20260507025032 48 240 0.0 0.0 0.00 0.00 0.00 2
20260507024532 48 240 0.0 0.0 0.00 0.00 0.00 2
20260507024032 48 240 0.0 0.0 0.00 0.00 0.00 2
20260507023532 48 240 0.0 0.0 0.00 0.00 0.00 2
20260507023032 48 240 0.0 0.0 0.00 0.00 0.00 2
20260507022532 48 240 0.0 0.0 0.00 0.00 0.00 2
20260507022032 48 240 0.0 0.0 0.00 0.00 0.00 2
20260507021532 49 240 0.0 0.0 0.00 0.00 0.00 2
20260507021031 48 240 0.0 0.0 0.00 0.00 0.00 2
20260507020531 49 240 0.0 0.0 0.00 0.00 0.00 2
20260507020031 49 240 0.0 0.0 0.00 0.00 0.00 2
20260507015532 49 240 0.0 0.0 0.00 0.00 0.00 2
20260507015032 49 240 0.0 0.0 0.00 0.00 0.00 2
20260507014531 49 240 0.0 0.0 0.00 0.00 0.00 2
20260507014032 49 240 0.0 0.0 0.00 0.00 0.00 2
20260507013532 49 240 0.0 0.0 0.00 0.00 0.00 2
20260507013032 49 240 0.0 0.0 0.00 0.00 0.00 2
20260507012532 49 240 0.0 0.0 0.00 0.00 0.00 2
20260507012032 49 240 0.0 0.0 0.00 0.00 0.00 2
20260507011532 50 240 0.0 0.0 0.00 0.00 0.00 2
20260507011032 50 240 0.0 0.0 0.00 0.00 0.00 2
20260507010532 50 240 0.0 0.0 0.00 0.00 0.00 2
20260507010032 50 240 0.0 0.0 0.00 0.00 0.00 2
20260507005532 50 240 0.0 0.0 0.00 0.00 0.00 2
20260507005032 50 240 0.0 0.0 0.00 0.00 0.00 2
20260507004531 50 240 0.0 0.0 0.00 0.00 0.00 2
20260507004032 50 240 0.0 0.0 0.00 0.00 0.00 2
20260507003531 51 240 0.0 0.0 0.00 0.00 0.00 2
20260507003032 51 240 0.0 0.0 0.00 0.00 0.00 2
20260507002532 51 240 0.0 0.0 0.00 0.00 0.00 2
20260507002032 51 240 0.0 0.0 0.00 0.00 0.00 2
20260507001532 51 240 0.0 0.0 0.00 0.00 0.00 2
20260507001032 51 240 0.0 0.0 0.00 0.00 0.00 2
20260507000532 51 240 0.0 0.0 0.00 0.00 0.00 2
20260507000031 51 240 0.0 0.0 0.00 0.00 0.00 2
20260506235532 51 240 0.0 0.0 0.00 0.00 0.00 2
20260506235032 52 240 0.0 0.0 0.00 0.00 0.00 2
20260506234532 52 240 0.0 0.0 0.00 0.00 0.00 2
20260506234032 52 240 0.0 0.0 0.00 0.00 0.00 2
20260506233532 52 240 0.0 0.0 0.00 0.00 0.00 2
20260506233032 52 240 0.0 0.0 0.00 0.00 0.00 2
20260506232532 52 240 0.0 0.0 0.00 0.00 0.00 2
20260506232032 52 240 0.0 0.0 0.00 0.00 0.00 2
20260506231531 52 240 0.0 0.0 0.00 0.00 0.00 2
20260506231032 52 240 0.0 0.0 0.00 0.00 0.00 2
20260506230532 53 240 0.0 0.0 0.00 0.00 0.00 2
20260506230032 53 240 0.0 0.0 0.00 0.00 0.00 2
20260506225532 52 240 0.0 0.0 0.00 0.00 0.00 2
20260506225032 52 240 0.0 0.0 0.00 0.00 0.00 2
20260506224532 53 240 0.0 0.0 0.00 0.00 0.00 2
20260506224032 52 240 0.0 0.0 0.00 0.00 0.00 2
20260506223531 52 240 0.0 0.0 0.00 0.00 0.00 2
20260506223032 53 240 0.0 0.0 0.00 0.00 0.00 2
20260506222532 52 240 0.0 0.0 0.00 0.00 0.00 2
20260506222032 52 240 0.0 0.0 0.00 0.00 0.00 2
20260506221532 52 240 0.0 0.0 0.00 0.00 0.00 2
20260506221032 52 240 0.0 0.0 0.00 0.00 0.00 2
20260506220532 53 240 0.0 0.0 0.00 0.00 0.00 2
20260506220032 53 240 0.0 0.0 0.00 0.00 0.00 2
20260506215532 53 240 0.0 0.0 0.00 0.00 0.00 2
20260506215032 53 240 0.0 0.0 0.00 0.00 0.00 2
20260506214531 53 240 0.0 0.0 0.00 0.00 0.00 2
20260506214032 52 240 0.0 0.0 0.00 0.00 0.00 2
20260506213531 52 240 0.9 2.6 0.00 0.00 0.00 2
20260506213032 52 298 0.0 0.0 0.00 0.00 0.00 2
20260506212531 52 298 0.0 0.0 0.00 0.00 0.00 2
20260506212031 52 298 0.0 0.0 0.00 0.00 0.00 2